Regional Weather Roundup
Issued by NWS

Home | Current Version | Previous Version | Graphics & Text | Print | Product List | Glossary On
Versions: 1 2 3 4 5 6 7 8 9 10 11 12 13 14 15 16 17 18 19 20 21 22 23 24 25 26 27 28 29 30 31 32 33 34 35 36 37 38 39 40 41 42 43 44 45 46 47 48 49 50
000
ASUS43 KLSX 271307
RWRMO

WEATHER SUMMARY FOR MISSOURI
NATIONAL WEATHER SERVICE SPRINGFIELD MO
800 AM CDT SAT AUG 27 2016

NOTE: "FAIR" INDICATES FEW OR NO CLOUDS BELOW 12,000 FEET WITH NO
       SIGNIFICANT WEATHER AND/OR OBSTRUCTIONS TO VISIBILITY.
       CURRENT SKY AND/OR WEATHER CONDITIONS ARE NOT AVAILABLE FOR
       CHILLICOTHE AND FARMINGTON.

MOZ001>031-035>038-043-044-053-054-271400-
...NORTHERN AND WESTERN MISSOURI...

CITY           SKY/WX    TMP DP  RH WIND       PRES   REMARKS
KANSAS CTY INT PTSUNNY   68  65  90 S5        30.04F
KANSAS C DTWN  CLOUDY    73  68  84 CALM      30.05R
LEE`S SUMMIT   CLOUDY    72  69  90 W9        30.07R
ST JOSEPH      LGT RAIN  69  68  96 S5        30.02F
KIRKSVILLE     MOSUNNY   68  66  93 CALM      30.07R

$$
MOZ066>068-077>081-088>096-101>105-271400-
...SOUTHWEST MISSOURI...

CITY           SKY/WX    TMP DP  RH WIND       PRES   REMARKS
SPRINGFIELD    MOSUNNY   74  70  87 S6        30.09R
JOPLIN         SUNNY     71  69  93 CALM      30.08R
BRANSON        MOSUNNY   72  70  94 S5        30.11R

$$
MOZ032>034-039>042-045>050-055>058-069>072-271400-
...CENTRAL MISSOURI...

CITY           SKY/WX    TMP DP  RH WIND       PRES   REMARKS
COLUMBIA       MOSUNNY   72  71  97 SE6       30.08R
JEFFERSON CITY SUNNY     72  71  97 CALM      30.07R
ROLLA          CLOUDY    71  69  93 S8        30.09R
SEDALIA        SUNNY     73  71  93 SW8       30.07R
WHITEMAN AFB   PTSUNNY   72  72 100 SW7       30.05R
OSAGE BEACH    PTSUNNY   73  72  96 SW3       30.09R

$$
MOZ051-052-059>065-271400-
...EAST CENTRAL MISSOURI...

CITY           SKY/WX    TMP DP  RH WIND       PRES   REMARKS
ST LOUIS INTL  CLOUDY    77  68  73 S5        30.08R
SPIRIT OF STL  CLOUDY    74  71  91 S6        30.06S
ST CHARLES     CLOUDY    74  72  93 SE3       30.06R

$$
MOZ072>076-082>087-097>100-106>115-271400-
...SOUTH CENTRAL AND SOUTHEAST MISSOURI...

CITY           SKY/WX    TMP DP  RH WIND       PRES   REMARKS
CAPE GIRARDEAU PTSUNNY   72  70  93 SE3       30.08R
FARMINGTON     CLOUDY    71  69  93 SE3       30.10R
POPLAR BLUFF   MOSUNNY   73  70  90 CALM      30.07S
WEST PLAINS    MOSUNNY   71  68  90 S6        30.12S

$$



USA.gov is the U.S. government's official web portal to all federal, state and local government web resources and services.